User: anonymous   Login
Location: Anjeux
(47.8815°N, 6.2076°E)
Time: 10:02:36
(UTC+00:00)
Language:

UWE-3 - Orbit

View from above orbital plane
View from above orbital plane
View from above satellite
View from above satellite

Ground track
Ground track

The orbit data is extracted from the following two-line orbital elements,

1 39446U 13066AG  21334.39791728  .00000762  00000-0  10596-3 0  9990
2 39446  97.6592 302.5064 0070044  19.4516 340.9344 14.78950627431034
Epoch (UTC): 30 November 2021 09:33:00
Eccentricity: 0.0070044
inclination: 97.6592°
perigee height: 583 km
apogee height: 682 km
right ascension of ascending node: 302.5064°
argument of perigee: 19.4516°
revolutions per day: 14.78950627
mean anomaly at epoch: 340.9344°
orbit number at epoch: 43103

The dashed part of the orbit path shows where the satellite is in the earth's shadow,  

DLR